Location: Mexico
(19.4000°N, 99.1500°W)
Time: 01:01:48
(UTC-06:00)

ISS - Pass Details

Date: 11 October 2019
Orbit: 411 x 421 km, 51.6° (Epoch: 15 October)

Event Time Altitude Azimuth Distance (km) Brightness Sun altitude
Rises 18:45:33 0° 340° (NNW) 2,332 0.2 -7.6°
Reaches altitude 10° 18:48:02 10° 358° (N) 1,469 -1.0 -8.2°
Maximum altitude 18:50:30 19° 47° (NE) 1,030 -2.2 -8.8°
Enters shadow 18:52:24 13° 88° (E) 1,304 -1.9 -9.2°
